SL-12 DEB, 41641

Orbit data source: Space-Track

SL-12 DEB, 41641 is space debris in HEO originally from a launch on Thu, 25 Dec 2008 UTC launched from the Tyuratam Missile And Space Complex (TTMTR). Debris objects in space refer to the collection of defunct objects orbiting the Earth. Examples of debris include non-operational satellites, rocket bodies, and fragments generated from explosions, collisions, or faulty payload assembly.

Loading next visibility...
Identifier
41641, 2008-067M
Orbit
HEO
Last TLE update
22 hours ago
Origin
Manufacturer
RKKE
Mission
Spacecraft
Bus & Motor
Unknown
Mass
Unknown
Launch date (UTC)
2008-12-25 (17 years ago)
Launch vehicle
Unknown
Launch site
Tyuratam Missile And Space Complex (TTMTR)
Object type
Payload
Rocket body
Debris
Shape & HBR
Unknown
Radar Cross Section
Medium (>0.1 m² and <1 m²)

Expand to show TLE details & history

TLE from 22 hours ago
0 SL-12 DEB
1 41641U 08067M   25181.45695863  .00000239  00000-0  17620-2 0  9992
2 41641  65.0437 259.7130 5612118 301.6422  15.5712  4.29312197139835
Epoch: 2025-06-30T10:58Z
TLE epoch observation values (Epoch: 2025-06-30T10:58:01.225Z)
Latitude
-0.00002°
Longitude
176.43693°
Altitude
2,095.116 km
Speed
8.317 km/s
True Right ascension
17h 18m 50s
True Declination
0° 00' 00"
Sunlit
Object was in full shadow at epoch
Visualization orbit readout
Latitude
-65.12698°
Longitude
89.80901°
Altitude
1,025.128 km
Speed
9.11 km/s
Apparent Right ascension
09h 44m 05s
Apparent Declination
-55° 14' 54"
Sunlit
Object is in daylight
Visualization observer readout
Local Sidereal Time
20:36:42
Azimuth
210.532° SW
Elevation
-71.022°
Doppler factor
1
Orbital elements
Apogee altitude
18,586.067 km
Perigee altitude
638.206 km
Semi-major axis
15,990.273 km
Eccentricity
0.56121
Inclination
65.0437°
RAAN
259.713°
Arg. of periapsis
301.6422°
True anomaly
Unknown
Mean anomaly
15.5712°
Eccentric anomaly
Unknown
Mean motion
1.07339 °/min
Orbital period
335.38 mins
BSTAR
0.001762
Loading maneuver chart data...
Loading SW <> Apogee altitude chart data...
Loading historical data...
Loading historical data...
Loading historical data...
Loading historical data...
Loading historical data...
Loading historical data...
Loading historical data...

SL-12 DEB Visibility forecast

Observer location: undefined°, undefined°

Span
Click to sort rows by Start time (UTC) header in descending order
Start Az.
Max El. time (UTC)
Max El. Az.
Max El.
End time (UTC)
End Az.
248 mins2025-07-01 09:29:29.794Z260.721° W2025-07-01 10:07:29.794Z341.182° N39.829°2025-07-01 13:37:29.794Z105.956° ESE
227 mins2025-07-01 15:45:29.794Z325.28° NNW2025-07-01 17:56:29.794Z285.979° WNW40.889°2025-07-01 19:32:29.794Z212.585° SW
24 mins2025-07-02 02:35:29.794Z53.377° ENE2025-07-02 02:44:29.794Z43.661° NE11.097°2025-07-02 02:59:29.794Z32.542° NE
71 mins2025-07-02 07:47:29.794Z230.222° WSW2025-07-02 08:07:29.794Z309.864° NW43.669°2025-07-02 08:58:29.794Z29.078° NE
|